CW0198 Weather Reports


Display with metric or nautical units.
time (UTC)temp
F
wind
direction
speed
MPH
gust
MPH
rain 1hr
in
rain 24hr
in
rain mn
in
humidity
%
barometer
mb
20260503231535 66 294 1.0 3.0 0.00 0.01 0.01 38 1015.8
20260503224512 67 269 1.0 6.0 0.00 0.01 0.01 37 1015.6
20260503223043 67 286 2.0 7.0 0.00 0.01 0.01 35 1015.7
20260503221504 67 341 2.0 6.0 0.00 0.01 0.01 33 1015.7
20260503220034 68 283 2.0 7.0 0.00 0.02 0.01 34 1015.6
20260503214601 68 288 4.0 16.0 0.00 0.02 0.01 37 1015.6
20260503214504 68 286 4.0 16.0 0.00 0.02 0.01 34 1015.6
20260503213021 67 278 3.0 11.0 0.00 0.02 0.01 33 1015.7
20260503211554 67 329 3.0 9.0 0.00 0.02 0.01 35 1015.7
20260503210010 67 301 3.0 8.0 0.00 0.03 0.01 35 1015.7
20260503204542 67 321 5.0 11.0 0.00 0.03 0.01 36 1015.9
20260503203056 67 280 2.0 10.0 0.00 0.03 0.01 37 1016.0
20260503201524 67 247 3.0 12.0 0.00 0.03 0.01 36 1016.2
20260503200044 67 277 3.0 8.0 0.00 0.04 0.01 36 1016.5
20260503194509 66 309 3.0 8.0 0.00 0.04 0.01 40 1016.5
20260503193030 66 293 2.0 7.0 0.00 0.04 0.01 38 1016.7
20260503191555 65 358 3.0 9.0 0.00 0.04 0.01 39 1016.9
20260503190029 65 354 4.0 13.0 0.00 0.07 0.01 37 1017.0
20260503184536 65 356 4.0 11.0 0.00 0.07 0.01 36 1017.2
20260503183110 64 288 4.0 11.0 0.00 0.07 0.01 43 1017.3
20260503183013 65 304 4.0 11.0 0.00 0.07 0.01 43 1017.2
20260503181516 64 95 1.0 11.0 0.00 0.07 0.01 38 1017.4
20260503180055 64 355 4.0 10.0 0.00 0.07 0.01 40 1017.5
20260503174600 63 294 5.0 11.0 0.00 0.10 0.01 40 1017.8
20260503173020 62 34 5.0 9.0 0.00 0.10 0.01 43 1017.9
20260503171545 62 345 6.0 13.0 0.00 0.10 0.01 45 1017.9
20260503081543 40 340 0.0 0.0 0.00 0.45 0.01 98 1015.2
20260503071517 42 340 0.0 0.0 0.00 0.45 0.01 98 1014.5
20260503054539 46 340 0.0 0.0 0.00 0.44 0.00 98 1014.2
20260503053053 46 341 0.0 0.0 0.00 0.44 0.00 98 1014.0
20260503051511 46 341 0.0 0.0 0.00 0.44 0.00 98 1014.1
20260503050033 47 359 0.0 0.0 0.00 0.44 0.00 98 1014.2
20260503044510 47 300 0.0 0.0 0.00 0.44 0.00 98 1014.3
20260503043043 47 294 0.0 0.0 0.00 0.44 0.00 98 1014.2
20260503041559 47 294 0.0 0.0 0.00 0.44 0.00 98 1013.9
20260503040028 46 283 0.0 0.0 0.00 0.44 0.44 98 1014.0
20260503034548 46 283 0.0 0.0 0.00 0.44 0.44 98 1013.7
20260503033018 46 283 0.0 0.0 0.00 0.44 0.44 97 1013.7
20260503031539 47 283 0.0 0.0 0.00 0.44 0.44 97 1013.6
20260503030003 48 283 0.0 0.0 0.00 0.44 0.44 98 1013.5
20260503024529 48 283 0.0 0.0 0.00 0.44 0.44 98 1013.3
20260503023049 48 283 0.0 0.0 0.00 0.44 0.44 97 1013.3
20260503021513 48 283 0.0 0.0 0.00 0.44 0.44 97 1013.5
20260503020042 49 284 0.0 0.0 0.00 0.44 0.44 97 1013.5
20260503014623 49 284 0.0 0.0 0.00 0.44 0.44 97 1013.3
20260503014502 49 284 0.0 0.0 0.00 0.44 0.44 97 1013.3
20260503013030 49 284 0.0 0.0 0.00 0.44 0.44 97 1013.3
20260503011600 50 203 0.0 0.0 0.00 0.44 0.44 97 1012.9
20260503010008 51 203 0.0 0.0 0.00 0.44 0.44 97 1012.6
20260503004533 51 203 0.0 0.0 0.00 0.44 0.44 96 1012.4
20260503003058 52 203 0.0 0.0 0.00 0.44 0.44 96 1012.2
20260503001525 52 202 0.0 0.0 0.00 0.44 0.44 96 1012.1
20260503000043 53 154 0.0 0.0 0.00 0.44 0.44 96 1011.8
20260502234510 53 167 0.0 0.0 0.00 0.44 0.44 96 1011.7
20260502233029 52 167 0.0 0.0 0.00 0.44 0.44 95 1011.7